RUTA 4 TRACK San Roque de Esplús

Extensible Markup Language (XML) icon RUTA 4 TRACK San Roque de Esplús.GPX — Extensible Markup Language (XML), 11 KB (11506 bytes)

Contenido del Archivo

<?xml version="1.0" encoding="UTF-8" standalone="no" ?>
<gpx xmlns="http://www.topografix.com/GPX/1/1" creator="CompeGPS" version="1.1" xmlns:xsi="http://www.w3.org/2001/XMLSchema-instance" xsi:schemaLocation="http://www.topografix.com/GPX/1/1 http://www.topografix.com/GPX/1/1/gpx.xsd">
  <metadata>
    <link href="http://www.compegps.com">
      <text>CompeGPS TEAM, SL</text>
    </link>
    <time>2019-06-12T16:32:11Z</time>
    <bounds maxlat="41.800833" maxlon="0.274117" minlat="41.797796" minlon="0.270405"/>
  </metadata>
  <trk>
    <name>Trazado corregido</name>
    <trkseg>
      <trkpt lat="41.797796" lon="0.273683">
        <ele>275.2</ele>
        <time>2019-02-07T10:40:26Z</time>
      </trkpt>
      <trkpt lat="41.797890" lon="0.273781">
        <ele>276.2</ele>
        <time>2019-02-07T10:40:26Z</time>
      </trkpt>
      <trkpt lat="41.798006" lon="0.273856">
        <ele>277.5</ele>
        <time>2019-02-07T10:40:26Z</time>
      </trkpt>
      <trkpt lat="41.798112" lon="0.273946">
        <ele>278.5</ele>
        <time>2019-02-07T10:40:26Z</time>
      </trkpt>
      <trkpt lat="41.798246" lon="0.274003">
        <ele>279.7</ele>
        <time>2019-02-07T10:40:26Z</time>
      </trkpt>
      <trkpt lat="41.798351" lon="0.274050">
        <ele>280.1</ele>
        <time>2019-02-07T10:40:26Z</time>
      </trkpt>
      <trkpt lat="41.798439" lon="0.274062">
        <ele>280.3</ele>
        <time>2019-02-07T10:40:26Z</time>
      </trkpt>
      <trkpt lat="41.798510" lon="0.274079">
        <ele>280.4</ele>
        <time>2019-02-07T10:40:26Z</time>
      </trkpt>
      <trkpt lat="41.798600" lon="0.274095">
        <ele>280.7</ele>
        <time>2019-02-07T10:40:26Z</time>
      </trkpt>
      <trkpt lat="41.798699" lon="0.274117">
        <ele>281.1</ele>
        <time>2019-02-07T10:40:26Z</time>
      </trkpt>
      <trkpt lat="41.798765" lon="0.274107">
        <ele>281.5</ele>
        <time>2019-02-07T10:40:26Z</time>
      </trkpt>
      <trkpt lat="41.798795" lon="0.274087">
        <ele>281.8</ele>
        <time>2019-02-07T10:40:26Z</time>
      </trkpt>
      <trkpt lat="41.798795" lon="0.273982">
        <ele>282.2</ele>
        <time>2019-02-07T10:40:26Z</time>
      </trkpt>
      <trkpt lat="41.798799" lon="0.273927">
        <ele>282.4</ele>
        <time>2019-02-07T10:40:26Z</time>
      </trkpt>
      <trkpt lat="41.798867" lon="0.273922">
        <ele>283.1</ele>
        <time>2019-02-07T10:40:26Z</time>
      </trkpt>
      <trkpt lat="41.798938" lon="0.273906">
        <ele>283.8</ele>
        <time>2019-02-07T10:40:26Z</time>
      </trkpt>
      <trkpt lat="41.799053" lon="0.273880">
        <ele>284.9</ele>
        <time>2019-02-07T10:40:26Z</time>
      </trkpt>
      <trkpt lat="41.799130" lon="0.273843">
        <ele>285.9</ele>
        <time>2019-02-07T10:40:26Z</time>
      </trkpt>
      <trkpt lat="41.799173" lon="0.273651">
        <ele>287.5</ele>
        <time>2019-02-07T10:40:26Z</time>
      </trkpt>
      <trkpt lat="41.799250" lon="0.273557">
        <ele>288.7</ele>
        <time>2019-02-07T10:40:26Z</time>
      </trkpt>
      <trkpt lat="41.799343" lon="0.273478">
        <ele>290.1</ele>
        <time>2019-02-07T10:40:26Z</time>
      </trkpt>
      <trkpt lat="41.799425" lon="0.273425">
        <ele>291.3</ele>
        <time>2019-02-07T10:40:26Z</time>
      </trkpt>
      <trkpt lat="41.799454" lon="0.273357">
        <ele>291.7</ele>
        <time>2019-02-07T10:40:26Z</time>
      </trkpt>
      <trkpt lat="41.799478" lon="0.273137">
        <ele>293.2</ele>
        <time>2019-02-07T10:40:26Z</time>
      </trkpt>
      <trkpt lat="41.799517" lon="0.272920">
        <ele>295.7</ele>
        <time>2019-02-07T10:40:26Z</time>
      </trkpt>
      <trkpt lat="41.799543" lon="0.272785">
        <ele>297.8</ele>
        <time>2019-02-07T10:40:26Z</time>
      </trkpt>
      <trkpt lat="41.799558" lon="0.272663">
        <ele>298.7</ele>
        <time>2019-02-07T10:40:26Z</time>
      </trkpt>
      <trkpt lat="41.799563" lon="0.272578">
        <ele>299.0</ele>
        <time>2019-02-07T10:40:26Z</time>
      </trkpt>
      <trkpt lat="41.799564" lon="0.272521">
        <ele>299.2</ele>
        <time>2019-02-07T10:40:26Z</time>
      </trkpt>
      <trkpt lat="41.799497" lon="0.272475">
        <ele>299.1</ele>
        <time>2019-02-07T10:40:26Z</time>
      </trkpt>
      <trkpt lat="41.799449" lon="0.272415">
        <ele>298.9</ele>
        <time>2019-02-07T10:40:26Z</time>
      </trkpt>
      <trkpt lat="41.799390" lon="0.272350">
        <ele>297.2</ele>
        <time>2019-02-07T10:40:26Z</time>
      </trkpt>
      <trkpt lat="41.799472" lon="0.272331">
        <ele>299.4</ele>
        <time>2019-02-07T10:40:26Z</time>
      </trkpt>
      <trkpt lat="41.799579" lon="0.272237">
        <ele>300.2</ele>
        <time>2019-02-07T10:40:26Z</time>
      </trkpt>
      <trkpt lat="41.799676" lon="0.272140">
        <ele>300.9</ele>
        <time>2019-02-07T10:40:26Z</time>
      </trkpt>
      <trkpt lat="41.799744" lon="0.272026">
        <ele>299.7</ele>
        <time>2019-02-07T10:40:26Z</time>
      </trkpt>
      <trkpt lat="41.799817" lon="0.271837">
        <ele>299.0</ele>
        <time>2019-02-07T10:40:26Z</time>
      </trkpt>
      <trkpt lat="41.799924" lon="0.271538">
        <ele>298.9</ele>
        <time>2019-02-07T10:40:26Z</time>
      </trkpt>
      <trkpt lat="41.799982" lon="0.271380">
        <ele>299.2</ele>
        <time>2019-02-07T10:40:26Z</time>
      </trkpt>
      <trkpt lat="41.800180" lon="0.271103">
        <ele>299.9</ele>
        <time>2019-02-07T10:40:26Z</time>
      </trkpt>
      <trkpt lat="41.800368" lon="0.270871">
        <ele>299.8</ele>
        <time>2019-02-07T10:40:26Z</time>
      </trkpt>
      <trkpt lat="41.800511" lon="0.270710">
        <ele>300.2</ele>
        <time>2019-02-07T10:40:26Z</time>
      </trkpt>
      <trkpt lat="41.800660" lon="0.270559">
        <ele>299.9</ele>
        <time>2019-02-07T10:40:26Z</time>
      </trkpt>
      <trkpt lat="41.800748" lon="0.270596">
        <ele>299.3</ele>
        <time>2019-02-07T10:40:26Z</time>
      </trkpt>
      <trkpt lat="41.800764" lon="0.270461">
        <ele>299.7</ele>
        <time>2019-02-07T10:40:26Z</time>
      </trkpt>
      <trkpt lat="41.800802" lon="0.270405">
        <ele>299.9</ele>
        <time>2019-02-07T10:40:26Z</time>
      </trkpt>
      <trkpt lat="41.800833" lon="0.270435">
        <ele>299.7</ele>
        <time>2019-02-07T10:40:26Z</time>
      </trkpt>
      <trkpt lat="41.800807" lon="0.270617">
        <ele>298.8</ele>
        <time>2019-02-07T10:40:26Z</time>
      </trkpt>
      <trkpt lat="41.800677" lon="0.270855">
        <ele>297.7</ele>
        <time>2019-02-07T10:40:26Z</time>
      </trkpt>
      <trkpt lat="41.800540" lon="0.271023">
        <ele>297.2</ele>
        <time>2019-02-07T10:40:26Z</time>
      </trkpt>
      <trkpt lat="41.800344" lon="0.271171">
        <ele>297.5</ele>
        <time>2019-02-07T10:40:26Z</time>
      </trkpt>
      <trkpt lat="41.800277" lon="0.271275">
        <ele>297.4</ele>
        <time>2019-02-07T10:40:26Z</time>
      </trkpt>
      <trkpt lat="41.800153" lon="0.271670">
        <ele>294.5</ele>
        <time>2019-02-07T10:40:26Z</time>
      </trkpt>
      <trkpt lat="41.800071" lon="0.271917">
        <ele>293.9</ele>
        <time>2019-02-07T10:40:26Z</time>
      </trkpt>
      <trkpt lat="41.799935" lon="0.272378">
        <ele>294.8</ele>
        <time>2019-02-07T10:40:26Z</time>
      </trkpt>
      <trkpt lat="41.799833" lon="0.272723">
        <ele>293.9</ele>
        <time>2019-02-07T10:40:26Z</time>
      </trkpt>
      <trkpt lat="41.799738" lon="0.273006">
        <ele>293.1</ele>
        <time>2019-02-07T10:40:26Z</time>
      </trkpt>
      <trkpt lat="41.799689" lon="0.273145">
        <ele>292.6</ele>
        <time>2019-02-07T10:40:26Z</time>
      </trkpt>
      <trkpt lat="41.799656" lon="0.273307">
        <ele>291.3</ele>
        <time>2019-02-07T10:40:26Z</time>
      </trkpt>
      <trkpt lat="41.799612" lon="0.273404">
        <ele>290.9</ele>
        <time>2019-02-07T10:40:26Z</time>
      </trkpt>
      <trkpt lat="41.799519" lon="0.273472">
        <ele>290.8</ele>
        <time>2019-02-07T10:40:26Z</time>
      </trkpt>
      <trkpt lat="41.799389" lon="0.273460">
        <ele>290.7</ele>
        <time>2019-02-07T10:40:26Z</time>
      </trkpt>
      <trkpt lat="41.799343" lon="0.273476">
        <ele>290.1</ele>
        <time>2019-02-07T10:40:26Z</time>
      </trkpt>
      <trkpt lat="41.799250" lon="0.273558">
        <ele>288.7</ele>
        <time>2019-02-07T10:40:26Z</time>
      </trkpt>
      <trkpt lat="41.799173" lon="0.273650">
        <ele>287.5</ele>
        <time>2019-02-07T10:40:26Z</time>
      </trkpt>
      <trkpt lat="41.799129" lon="0.273843">
        <ele>285.9</ele>
        <time>2019-02-07T10:40:26Z</time>
      </trkpt>
      <trkpt lat="41.799050" lon="0.273882">
        <ele>284.9</ele>
        <time>2019-02-07T10:40:26Z</time>
      </trkpt>
      <trkpt lat="41.798937" lon="0.273906">
        <ele>283.8</ele>
        <time>2019-02-07T10:40:26Z</time>
      </trkpt>
      <trkpt lat="41.798868" lon="0.273921">
        <ele>283.1</ele>
        <time>2019-02-07T10:40:26Z</time>
      </trkpt>
      <trkpt lat="41.798798" lon="0.273930">
        <ele>282.4</ele>
        <time>2019-02-07T10:40:26Z</time>
      </trkpt>
      <trkpt lat="41.798795" lon="0.273985">
        <ele>282.2</ele>
        <time>2019-02-07T10:40:26Z</time>
      </trkpt>
      <trkpt lat="41.798796" lon="0.274086">
        <ele>281.8</ele>
        <time>2019-02-07T10:40:26Z</time>
      </trkpt>
      <trkpt lat="41.798766" lon="0.274106">
        <ele>281.5</ele>
        <time>2019-02-07T10:40:26Z</time>
      </trkpt>
      <trkpt lat="41.798695" lon="0.274117">
        <ele>281.1</ele>
        <time>2019-02-07T10:40:26Z</time>
      </trkpt>
      <trkpt lat="41.798598" lon="0.274096">
        <ele>280.7</ele>
        <time>2019-02-07T10:40:26Z</time>
      </trkpt>
      <trkpt lat="41.798512" lon="0.274078">
        <ele>280.4</ele>
        <time>2019-02-07T10:40:26Z</time>
      </trkpt>
      <trkpt lat="41.798437" lon="0.274059">
        <ele>280.3</ele>
        <time>2019-02-07T10:40:26Z</time>
      </trkpt>
      <trkpt lat="41.798350" lon="0.274047">
        <ele>280.1</ele>
        <time>2019-02-07T10:40:26Z</time>
      </trkpt>
      <trkpt lat="41.798246" lon="0.273999">
        <ele>279.7</ele>
        <time>2019-02-07T10:40:26Z</time>
      </trkpt>
      <trkpt lat="41.798115" lon="0.273945">
        <ele>278.5</ele>
        <time>2019-02-07T10:40:26Z</time>
      </trkpt>
      <trkpt lat="41.798007" lon="0.273857">
        <ele>277.5</ele>
        <time>2019-02-07T10:40:26Z</time>
      </trkpt>
      <trkpt lat="41.797887" lon="0.273782">
        <ele>276.2</ele>
        <time>2019-02-07T10:40:26Z</time>
      </trkpt>
      <trkpt lat="41.797797" lon="0.273679">
        <ele>275.1</ele>
        <time>2019-02-07T10:40:26Z</time>
      </trkpt>
    </trkseg>
  </trk>
</gpx>